Time,TemperatureF,DewpointF,PressureIn,WindDirection,WindDirectionDegrees,WindSpeedMPH,WindSpeedGustMPH,Humidity,HourlyPrecipIn,Conditions,Clouds,dailyrainin,SoftwareType,DateUTC
2013-01-25 00:03:00,21.0,0.0,30.29,East,79,1.0,2.0,39,0.00,,,0.00,,2013-01-25 05:03:00,
2013-01-25 00:12:00,21.0,0.0,30.29,East,90,0.0,5.0,39,0.00,,,0.00,,2013-01-25 05:12:00,
2013-01-25 00:22:00,21.0,0.0,30.29,East,90,0.0,5.0,39,0.00,,,0.00,,2013-01-25 05:22:00,
2013-01-25 00:32:00,21.0,2.0,30.29,East,85,0.0,3.0,42,0.00,,,0.00,,2013-01-25 05:32:00,
2013-01-25 00:43:00,21.0,2.0,30.29,East,85,0.0,3.0,42,0.00,,,0.00,,2013-01-25 05:43:00,
2013-01-25 00:52:00,21.0,2.0,30.29,East,84,0.0,3.0,42,0.00,,,0.00,,2013-01-25 05:52:00,
2013-01-25 01:02:00,20.0,1.0,30.29,East,84,0.0,1.0,43,0.00,,,0.00,,2013-01-25 06:02:00,
2013-01-25 01:11:00,20.0,1.0,30.29,East,84,0.0,1.0,43,0.00,,,0.00,,2013-01-25 06:11:00,
2013-01-25 01:21:00,20.0,0.0,30.29,East,97,2.0,3.0,41,0.00,,,0.00,,2013-01-25 06:21:00,
2013-01-25 01:32:00,20.0,2.0,30.29,East,97,0.0,1.0,45,0.00,,,0.00,,2013-01-25 06:32:00,
2013-01-25 01:42:00,20.0,2.0,30.29,East,97,0.0,1.0,45,0.00,,,0.00,,2013-01-25 06:42:00,
2013-01-25 01:52:00,19.0,1.0,30.29,ESE,112,0.0,3.0,44,0.00,,,0.00,,2013-01-25 06:52:00,
2013-01-25 02:02:00,19.0,0.0,30.30,ENE,57,2.0,7.0,42,0.00,,,0.00,,2013-01-25 07:02:00,
2013-01-25 02:11:00,19.0,0.0,30.30,ENE,57,2.0,7.0,42,0.00,,,0.00,,2013-01-25 07:11:00,
2013-01-25 02:22:00,19.0,0.0,30.29,ENE,61,0.0,4.0,42,0.00,,,0.00,,2013-01-25 07:22:00,
2013-01-25 02:32:00,19.0,1.0,30.29,ESE,110,2.0,4.0,44,0.00,,,0.00,,2013-01-25 07:32:00,
2013-01-25 02:42:00,19.0,1.0,30.29,ESE,110,2.0,4.0,44,0.00,,,0.00,,2013-01-25 07:42:00,
2013-01-25 02:51:00,19.0,2.0,30.29,ESE,110,0.0,1.0,46,0.00,,,0.00,,2013-01-25 07:51:00,
2013-01-25 03:02:00,18.0,2.0,30.28,ESE,110,0.0,2.0,49,0.00,,,0.00,,2013-01-25 08:02:00,
2013-01-25 03:12:00,18.0,2.0,30.28,ESE,110,0.0,3.0,48,0.00,,,0.00,,2013-01-25 08:12:00,
2013-01-25 03:21:00,18.0,2.0,30.28,ESE,110,0.0,3.0,48,0.00,,,0.00,,2013-01-25 08:21:00,
2013-01-25 03:32:00,18.0,2.0,30.27,ESE,110,1.0,2.0,48,0.00,,,0.00,,2013-01-25 08:32:00,
2013-01-25 03:42:00,18.0,2.0,30.27,ESE,110,1.0,2.0,48,0.00,,,0.00,,2013-01-25 08:42:00,
2013-01-25 03:52:00,18.0,2.0,30.27,ESE,110,0.0,1.0,48,0.00,,,0.00,,2013-01-25 08:52:00,
2013-01-25 04:02:00,18.0,0.0,30.27,ESE,110,0.0,0.0,45,0.00,,,0.00,,2013-01-25 09:02:00,
2013-01-25 04:11:00,18.0,0.0,30.27,ESE,110,0.0,0.0,45,0.00,,,0.00,,2013-01-25 09:11:00,
2013-01-25 04:21:00,18.0,0.0,30.27,ESE,110,0.0,0.0,45,0.00,,,0.00,,2013-01-25 09:21:00,
2013-01-25 04:32:00,18.0,0.0,30.26,ESE,110,0.0,1.0,44,0.00,,,0.00,,2013-01-25 09:32:00,
2013-01-25 04:42:00,18.0,0.0,30.26,ESE,110,0.0,1.0,44,0.00,,,0.00,,2013-01-25 09:42:00,
2013-01-25 04:51:00,19.0,0.0,30.26,ESE,110,0.0,3.0,43,0.00,,,0.00,,2013-01-25 09:51:00,
2013-01-25 05:02:00,20.0,0.0,30.25,NE,35,1.0,4.0,41,0.00,,,0.00,,2013-01-25 10:02:00,
2013-01-25 05:12:00,20.0,0.0,30.24,NE,36,0.0,3.0,40,0.00,,,0.00,,2013-01-25 10:12:00,
2013-01-25 05:21:00,20.0,0.0,30.24,NE,36,0.0,3.0,40,0.00,,,0.00,,2013-01-25 10:21:00,
2013-01-25 05:32:00,20.0,1.0,30.24,East,90,0.0,3.0,42,0.00,,,0.00,,2013-01-25 10:32:00,
2013-01-25 05:42:00,20.0,1.0,30.24,East,90,0.0,3.0,42,0.00,,,0.00,,2013-01-25 10:42:00,
2013-01-25 05:51:00,21.0,2.0,30.24,SSE,159,1.0,2.0,42,0.00,,,0.00,,2013-01-25 10:51:00,
2013-01-25 06:03:00,21.0,1.0,30.22,WSW,238,0.0,5.0,41,0.00,,,0.00,,2013-01-25 11:03:00,
2013-01-25 06:11:00,21.0,1.0,30.22,WSW,238,0.0,5.0,41,0.00,,,0.00,,2013-01-25 11:11:00,
2013-01-25 06:22:00,21.0,1.0,30.23,WSW,238,0.0,1.0,41,0.00,,,0.00,,2013-01-25 11:22:00,
2013-01-25 06:33:00,21.0,1.0,30.22,NNW,332,0.0,2.0,40,0.00,,,0.00,,2013-01-25 11:33:00,
2013-01-25 06:42:00,21.0,1.0,30.22,NNW,332,0.0,2.0,40,0.00,,,0.00,,2013-01-25 11:42:00,
2013-01-25 06:52:00,21.0,2.0,30.22,West,267,0.0,3.0,42,0.00,,,0.00,,2013-01-25 11:52:00,
2013-01-25 07:03:00,21.0,6.0,30.22,SW,229,0.0,2.0,51,0.00,,,0.00,,2013-01-25 12:03:00,
2013-01-25 07:12:00,21.0,6.0,30.22,SW,229,0.0,2.0,51,0.00,,,0.00,,2013-01-25 12:12:00,
2013-01-25 07:22:00,21.0,7.0,30.22,SW,229,0.0,1.0,54,0.00,,,0.00,,2013-01-25 12:22:00,
2013-01-25 07:32:00,20.0,8.0,30.22,North,349,2.0,3.0,58,0.00,,,0.00,,2013-01-25 12:32:00,
2013-01-25 07:42:00,20.0,8.0,30.22,North,349,2.0,3.0,58,0.00,,,0.00,,2013-01-25 12:42:00,
2013-01-25 07:53:00,20.0,8.0,30.22,NNW,334,0.0,4.0,60,0.00,,,0.00,,2013-01-25 12:53:00,
2013-01-25 08:03:00,20.0,8.0,30.21,NNW,334,0.0,2.0,59,0.00,,,0.00,,2013-01-25 13:03:00,
2013-01-25 08:12:00,20.0,8.0,30.21,NNW,334,0.0,2.0,59,0.00,,,0.00,,2013-01-25 13:12:00,
2013-01-25 08:22:00,20.0,9.0,30.21,NNW,334,0.0,1.0,61,0.00,,,0.00,,2013-01-25 13:22:00,
2013-01-25 08:33:00,20.0,7.0,30.21,North,6,2.0,4.0,57,0.00,,,0.00,,2013-01-25 13:33:00,
2013-01-25 08:42:00,20.0,7.0,30.21,North,6,2.0,4.0,57,0.00,,,0.00,,2013-01-25 13:42:00,
2013-01-25 08:52:00,20.0,8.0,30.21,North,6,0.0,2.0,58,0.00,,,0.00,,2013-01-25 13:52:00,
2013-01-25 09:03:00,20.0,7.0,30.21,North,6,0.0,3.0,57,0.00,,,0.00,,2013-01-25 14:03:00,
2013-01-25 09:12:00,20.0,7.0,30.21,North,6,0.0,3.0,57,0.00,,,0.00,,2013-01-25 14:12:00,
2013-01-25 09:23:00,21.0,8.0,30.20,North,6,0.0,1.0,56,0.00,,,0.00,,2013-01-25 14:23:00,
2013-01-25 09:33:00,21.0,9.0,30.20,NNE,15,0.0,2.0,58,0.00,,,0.00,,2013-01-25 14:33:00,
2013-01-25 09:42:00,21.0,9.0,30.20,NNE,15,0.0,2.0,58,0.00,,,0.00,,2013-01-25 14:42:00,
2013-01-25 09:53:00,21.0,10.0,30.20,NNE,17,0.0,2.0,63,0.00,,,0.00,,2013-01-25 14:53:00,
2013-01-25 10:03:00,21.0,11.0,30.20,NNE,17,0.0,1.0,66,0.00,,,0.00,,2013-01-25 15:03:00,
2013-01-25 10:12:00,21.0,11.0,30.20,NNE,17,0.0,1.0,66,0.00,,,0.00,,2013-01-25 15:12:00,
2013-01-25 10:22:00,20.0,11.0,30.19,NNE,17,0.0,1.0,68,0.00,,,0.00,,2013-01-25 15:22:00,
2013-01-25 10:33:00,20.0,11.0,30.17,NNE,17,0.0,1.0,69,0.00,,,0.00,,2013-01-25 15:33:00,
2013-01-25 10:42:00,20.0,11.0,30.17,NNE,17,0.0,1.0,69,0.00,,,0.00,,2013-01-25 15:42:00,
2013-01-25 10:52:00,20.0,11.0,30.17,NNE,18,0.0,2.0,69,0.00,,,0.00,,2013-01-25 15:52:00,
2013-01-25 11:03:00,20.0,12.0,30.17,NNE,17,0.0,2.0,70,0.00,,,0.00,,2013-01-25 16:03:00,
2013-01-25 11:12:00,20.0,12.0,30.17,NNE,17,0.0,2.0,70,0.00,,,0.00,,2013-01-25 16:12:00,
2013-01-25 11:23:00,21.0,13.0,30.16,NNE,17,0.0,3.0,71,0.00,,,0.00,,2013-01-25 16:23:00,
2013-01-25 11:33:00,21.0,13.0,30.16,NNE,17,0.0,3.0,72,0.00,,,0.00,,2013-01-25 16:33:00,
2013-01-25 11:43:00,21.0,13.0,30.16,NNE,17,0.0,3.0,72,0.00,,,0.00,,2013-01-25 16:43:00,
2013-01-25 11:52:00,21.0,14.0,30.14,NNE,17,0.0,1.0,73,0.00,,,0.00,,2013-01-25 16:52:00,
2013-01-25 12:03:00,22.0,15.0,30.11,NNE,17,0.0,2.0,74,0.00,,,0.00,,2013-01-25 17:03:00,
2013-01-25 12:12:00,22.0,15.0,30.11,NNE,17,0.0,2.0,74,0.00,,,0.00,,2013-01-25 17:12:00,
2013-01-25 12:22:00,22.0,15.0,30.11,NNE,17,0.0,2.0,75,0.00,,,0.00,,2013-01-25 17:22:00,
2013-01-25 12:33:00,23.0,17.0,30.10,NE,49,0.0,2.0,78,0.00,,,0.00,,2013-01-25 17:33:00,
2013-01-25 12:43:00,23.0,17.0,30.10,NE,49,0.0,2.0,78,0.00,,,0.00,,2013-01-25 17:43:00,
2013-01-25 12:52:00,23.0,17.0,30.09,NE,49,0.0,1.0,78,0.00,,,0.00,,2013-01-25 17:52:00,
2013-01-25 13:03:00,24.0,19.0,30.08,NE,49,1.0,3.0,81,0.00,,,0.00,,2013-01-25 18:03:00,
2013-01-25 13:12:00,24.0,19.0,30.08,NE,49,1.0,3.0,81,0.00,,,0.00,,2013-01-25 18:12:00,
2013-01-25 13:23:00,24.0,19.0,30.08,NE,49,0.0,1.0,81,0.00,,,0.00,,2013-01-25 18:23:00,
2013-01-25 13:33:00,27.0,23.0,30.06,WSW,239,1.0,3.0,85,0.00,,,0.00,,2013-01-25 18:33:00,
2013-01-25 13:42:00,27.0,23.0,30.06,WSW,239,1.0,3.0,85,0.00,,,0.00,,2013-01-25 18:42:00,
2013-01-25 13:52:00,27.0,23.0,30.05,WSW,256,0.0,3.0,84,0.00,,,0.00,,2013-01-25 18:52:00,
2013-01-25 14:03:00,28.0,24.0,30.04,WNW,289,0.0,3.0,85,0.00,,,0.00,,2013-01-25 19:03:00,
2013-01-25 14:12:00,28.0,24.0,30.04,WNW,289,0.0,3.0,85,0.00,,,0.00,,2013-01-25 19:12:00,
2013-01-25 14:22:00,29.0,25.0,30.03,WSW,237,3.0,7.0,85,0.00,,,0.00,,2013-01-25 19:22:00,
2013-01-25 14:33:00,29.0,25.0,30.02,WSW,238,4.0,8.0,84,0.00,,,0.00,,2013-01-25 19:33:00,
2013-01-25 14:42:00,29.0,25.0,30.02,WSW,238,4.0,8.0,84,0.00,,,0.00,,2013-01-25 19:42:00,
2013-01-25 14:52:00,30.0,26.0,30.01,SW,233,2.0,5.0,85,0.00,,,0.00,,2013-01-25 19:52:00,
2013-01-25 15:03:00,30.0,26.0,29.99,SW,215,2.0,5.0,86,0.00,,,0.00,,2013-01-25 20:03:00,
2013-01-25 15:12:00,30.0,26.0,29.99,SW,215,2.0,5.0,86,0.00,,,0.00,,2013-01-25 20:12:00,
2013-01-25 15:23:00,31.0,27.0,29.98,SW,215,1.0,4.0,86,0.00,,,0.00,,2013-01-25 20:23:00,
2013-01-25 15:32:00,31.0,27.0,29.98,SSW,204,1.0,4.0,86,0.01,,,0.01,,2013-01-25 20:32:00,
2013-01-25 15:42:00,31.0,27.0,29.98,SSW,204,1.0,4.0,86,0.01,,,0.01,,2013-01-25 20:42:00,
2013-01-25 15:52:00,31.0,27.0,29.97,SSW,204,0.0,3.0,86,0.01,,,0.01,,2013-01-25 20:52:00,
2013-01-25 16:02:00,31.0,27.0,29.96,SSE,168,0.0,5.0,86,0.01,,,0.01,,2013-01-25 21:02:00,
2013-01-25 16:12:00,31.0,27.0,29.96,SSE,168,0.0,5.0,86,0.01,,,0.01,,2013-01-25 21:12:00,
2013-01-25 16:23:00,31.0,28.0,29.96,SSE,165,0.0,4.0,87,0.01,,,0.01,,2013-01-25 21:23:00,
2013-01-25 16:33:00,31.0,28.0,29.96,South,182,2.0,5.0,87,0.01,,,0.02,,2013-01-25 21:33:00,
2013-01-25 16:42:00,31.0,28.0,29.96,South,182,2.0,5.0,87,0.01,,,0.02,,2013-01-25 21:42:00,
2013-01-25 16:52:00,31.0,28.0,29.95,South,170,2.0,5.0,87,0.01,,,0.02,,2013-01-25 21:52:00,
2013-01-25 17:03:00,31.0,28.0,29.95,SW,226,2.0,6.0,87,0.01,,,0.02,,2013-01-25 22:03:00,
2013-01-25 17:12:00,31.0,28.0,29.95,SW,226,2.0,6.0,87,0.01,,,0.02,,2013-01-25 22:12:00,
2013-01-25 17:22:00,31.0,28.0,29.94,South,185,1.0,3.0,87,0.01,,,0.02,,2013-01-25 22:22:00,
2013-01-25 17:33:00,31.0,28.0,29.94,South,185,0.0,1.0,87,0.00,,,0.02,,2013-01-25 22:33:00,
2013-01-25 17:42:00,31.0,28.0,29.94,South,185,0.0,1.0,87,0.00,,,0.02,,2013-01-25 22:42:00,
2013-01-25 17:52:00,31.0,28.0,29.95,South,185,0.0,2.0,87,0.00,,,0.02,,2013-01-25 22:52:00,
2013-01-25 18:02:00,31.0,28.0,29.95,SSE,155,0.0,5.0,88,0.00,,,0.02,,2013-01-25 23:02:00,
2013-01-25 18:12:00,31.0,28.0,29.95,SSE,155,0.0,5.0,88,0.00,,,0.02,,2013-01-25 23:12:00,
2013-01-25 18:22:00,31.0,28.0,29.95,SSE,160,0.0,4.0,88,0.00,,,0.02,,2013-01-25 23:22:00,
2013-01-25 18:32:00,32.0,29.0,29.95,SSW,207,2.0,6.0,89,0.00,,,0.02,,2013-01-25 23:32:00,
2013-01-25 18:42:00,32.0,29.0,29.95,SSW,207,2.0,6.0,89,0.00,,,0.02,,2013-01-25 23:42:00,
2013-01-25 18:52:00,33.0,30.0,29.95,SSW,201,2.0,11.0,89,0.00,,,0.02,,2013-01-25 23:52:00,
2013-01-25 19:02:00,35.0,32.0,29.95,South,189,4.0,11.0,90,0.01,,,0.03,,2013-01-26 00:02:00,
2013-01-25 19:11:00,35.0,32.0,29.95,South,189,4.0,11.0,90,0.01,,,0.03,,2013-01-26 00:11:00,
2013-01-25 19:22:00,36.0,33.0,29.96,SSW,196,6.0,14.0,89,0.01,,,0.03,,2013-01-26 00:22:00,
2013-01-25 19:32:00,39.0,35.0,29.96,SSW,206,9.0,24.0,86,0.02,,,0.04,,2013-01-26 00:32:00,
2013-01-25 19:42:00,39.0,35.0,29.96,SSW,206,9.0,24.0,86,0.02,,,0.04,,2013-01-26 00:42:00,
2013-01-25 19:53:00,39.0,35.0,29.95,SSE,166,8.0,20.0,86,0.03,,,0.05,,2013-01-26 00:53:00,
2013-01-25 20:02:00,40.0,36.0,29.94,SSE,149,8.0,12.0,85,0.03,,,0.06,,2013-01-26 01:02:00,
2013-01-25 20:12:00,40.0,36.0,29.94,SSE,149,8.0,12.0,85,0.03,,,0.06,,2013-01-26 01:12:00,
2013-01-25 20:22:00,41.0,37.0,29.95,SW,233,7.0,28.0,84,0.03,,,0.06,,2013-01-26 01:22:00,
2013-01-25 20:32:00,41.0,36.0,29.95,SSW,198,5.0,26.0,82,0.03,,,0.07,,2013-01-26 01:32:00,
2013-01-25 20:42:00,41.0,36.0,29.95,SSW,198,5.0,26.0,82,0.03,,,0.07,,2013-01-26 01:42:00,
2013-01-25 20:52:00,41.0,36.0,29.95,South,174,10.0,22.0,82,0.02,,,0.07,,2013-01-26 01:52:00,
2013-01-25 21:02:00,41.0,36.0,29.95,SSE,147,14.0,24.0,81,0.02,,,0.08,,2013-01-26 02:02:00,
2013-01-25 21:11:00,41.0,36.0,29.95,SSE,147,14.0,24.0,81,0.02,,,0.08,,2013-01-26 02:11:00,
2013-01-25 21:22:00,41.0,36.0,29.96,ESE,117,11.0,22.0,81,0.02,,,0.08,,2013-01-26 02:22:00,
2013-01-25 21:32:00,40.0,35.0,29.96,South,172,6.0,24.0,81,0.02,,,0.09,,2013-01-26 02:32:00,
2013-01-25 21:42:00,40.0,35.0,29.96,South,172,6.0,24.0,81,0.02,,,0.09,,2013-01-26 02:42:00,
2013-01-25 21:52:00,40.0,35.0,29.96,West,267,7.0,22.0,82,0.02,,,0.09,,2013-01-26 02:52:00,
2013-01-25 22:02:00,39.0,34.0,29.96,South,179,10.0,21.0,81,0.02,,,0.09,,2013-01-26 03:02:00,
2013-01-25 22:12:00,39.0,34.0,29.96,South,179,10.0,21.0,81,0.02,,,0.09,,2013-01-26 03:12:00,
2013-01-25 22:22:00,39.0,34.0,29.97,East,100,6.0,26.0,82,0.01,,,0.09,,2013-01-26 03:22:00,
2013-01-25 22:32:00,39.0,34.0,29.98,SE,146,10.0,19.0,81,0.01,,,0.09,,2013-01-26 03:32:00,
2013-01-25 22:43:00,39.0,34.0,29.98,SE,146,10.0,19.0,81,0.01,,,0.09,,2013-01-26 03:43:00,
2013-01-25 22:52:00,39.0,33.0,29.99,SE,127,9.0,18.0,80,0.01,,,0.10,,2013-01-26 03:52:00,
2013-01-25 23:02:00,39.0,33.0,29.97,SSW,207,8.0,18.0,80,0.01,,,0.10,,2013-01-26 04:02:00,
2013-01-25 23:12:00,39.0,33.0,29.97,SSW,207,8.0,18.0,80,0.01,,,0.10,,2013-01-26 04:12:00,
2013-01-25 23:21:00,39.0,33.0,29.98,SE,140,7.0,18.0,80,0.01,,,0.10,,2013-01-26 04:21:00,
2013-01-25 23:32:00,39.0,33.0,29.98,South,175,8.0,16.0,78,0.01,,,0.10,,2013-01-26 04:32:00,
2013-01-25 23:42:00,39.0,33.0,29.98,South,175,8.0,16.0,78,0.01,,,0.10,,2013-01-26 04:42:00,
2013-01-25 23:52:00,39.0,32.0,29.97,SSE,151,10.0,18.0,77,0.01,,,0.11,,2013-01-26 04:52:00,